Location: Namasale
(1.5000°N, 32.6167°E)
Time: 04:35:40
(UTC+00:00)

Hubble Space Telescope - Pass Details

Date: 06 December 2021
Orbit: 534 x 538 km, 28.5° (Epoch: 19 January)

Event Time Altitude Azimuth Distance (km) Brightness Sun altitude
Rises 16:45:27 0° 232° (SW) 2,674 5.9 -15.5°
Reaches altitude 10° 16:47:45 10° 228° (SW) 1,782 4.6 -16.0°
Maximum altitude 16:51:48 54° 150° (SSE) 648 1.1 -17.0°
Enters shadow 16:53:13 35° 91° (E) 875 1.3 -17.3°
